Time,TemperatureF,DewpointF,PressureIn,WindDirection,WindDirectionDegrees,WindSpeedMPH,WindSpeedGustMPH,Humidity,HourlyPrecipIn,Conditions,Clouds,dailyrainin,SoftwareType,DateUTC
2013-08-05 00:10:00,75.3,68.7,29.99,East,95,2.0,2.0,80,0.00,,,0.00,Wunderground v.1.15,2013-08-05 10:10:00,
2013-08-05 00:19:00,75.1,68.5,29.99,SE,134,1.0,3.0,80,0.00,,,0.00,Wunderground v.1.15,2013-08-05 10:19:00,
2013-08-05 00:30:00,75.0,68.8,29.99,NE,42,1.0,2.0,81,0.00,,,0.00,Wunderground v.1.15,2013-08-05 10:30:00,
2013-08-05 00:45:00,75.0,68.8,29.98,NE,49,1.0,2.0,81,0.00,,,0.00,Wunderground v.1.15,2013-08-05 10:45:00,
2013-08-05 00:55:00,74.7,68.5,29.97,ESE,113,1.0,3.0,81,0.00,,,0.00,Wunderground v.1.15,2013-08-05 10:55:00,
2013-08-05 01:05:00,74.9,68.7,29.97,ENE,71,4.0,6.0,81,0.00,,,0.00,Wunderground v.1.15,2013-08-05 11:05:00,
2013-08-05 01:14:00,75.0,68.8,29.97,East,94,5.0,5.0,81,0.00,,,0.00,Wunderground v.1.15,2013-08-05 11:14:00,
2013-08-05 01:24:00,75.0,69.1,29.97,ENE,71,4.0,5.0,82,0.00,,,0.00,Wunderground v.1.15,2013-08-05 11:24:00,
2013-08-05 01:30:00,74.9,69.0,29.97,East,88,4.0,4.0,82,0.00,,,0.00,Wunderground v.1.15,2013-08-05 11:30:00,
2013-08-05 01:45:00,74.6,68.7,29.96,East,101,5.0,5.0,82,0.00,,,0.00,Wunderground v.1.15,2013-08-05 11:45:00,
2013-08-05 01:55:00,74.7,68.5,29.96,East,99,4.0,5.0,81,0.00,,,0.00,Wunderground v.1.15,2013-08-05 11:55:00,
2013-08-05 02:05:00,74.5,68.6,29.95,ESE,121,3.0,4.0,82,0.00,,,0.00,Wunderground v.1.15,2013-08-05 12:05:00,
2013-08-05 02:20:00,74.6,68.7,29.95,East,90,3.0,5.0,82,0.00,,,0.00,Wunderground v.1.15,2013-08-05 12:20:00,
2013-08-05 02:25:00,74.6,69.1,29.96,East,86,3.0,5.0,83,0.00,,,0.00,Wunderground v.1.15,2013-08-05 12:25:00,
2013-08-05 02:35:00,74.3,69.1,29.95,ENE,65,3.0,7.0,84,0.00,,,0.00,Wunderground v.1.15,2013-08-05 12:35:00,
2013-08-05 02:44:00,74.2,69.1,29.95,ENE,74,3.0,4.0,84,0.00,,,0.00,Wunderground v.1.15,2013-08-05 12:44:00,
2013-08-05 03:00:00,74.2,69.7,29.95,NE,42,3.0,3.0,86,0.00,,,0.00,Wunderground v.1.15,2013-08-05 13:00:00,
2013-08-05 03:05:00,74.1,69.6,29.95,ENE,60,3.0,5.0,86,0.00,,,0.00,Wunderground v.1.15,2013-08-05 13:05:00,
2013-08-05 03:15:00,73.9,69.8,29.95,ENE,73,2.0,2.0,87,0.00,,,0.00,Wunderground v.1.15,2013-08-05 13:15:00,
2013-08-05 03:24:00,73.7,69.2,29.95,ESE,117,2.0,3.0,86,0.00,,,0.00,Wunderground v.1.15,2013-08-05 13:24:00,
2013-08-05 03:40:00,73.8,69.3,29.95,ENE,75,2.0,3.0,86,0.00,,,0.00,Wunderground v.1.15,2013-08-05 13:40:00,
2013-08-05 03:45:00,73.8,69.0,29.95,NE,55,2.0,5.0,85,0.00,,,0.00,Wunderground v.1.15,2013-08-05 13:45:00,
2013-08-05 03:55:00,73.7,69.6,29.95,East,83,3.0,5.0,87,0.00,,,0.00,Wunderground v.1.15,2013-08-05 13:55:00,
2013-08-05 04:05:00,73.2,69.1,29.95,East,88,5.0,5.0,87,0.00,,,0.00,Wunderground v.1.15,2013-08-05 14:05:00,
2013-08-05 04:14:00,73.3,69.5,29.94,East,85,4.0,6.0,88,0.00,,,0.00,Wunderground v.1.15,2013-08-05 14:14:00,
2013-08-05 04:25:00,73.2,69.4,29.95,ENE,78,3.0,4.0,88,0.00,,,0.00,Wunderground v.1.15,2013-08-05 14:25:00,
2013-08-05 04:35:00,73.3,69.5,29.96,ENE,75,2.0,5.0,88,0.00,,,0.00,Wunderground v.1.15,2013-08-05 14:35:00,
2013-08-05 04:50:00,73.1,69.7,29.96,East,83,3.0,3.0,89,0.00,,,0.00,Wunderground v.1.15,2013-08-05 14:50:00,
2013-08-05 05:00:00,73.1,69.7,29.96,East,99,3.0,3.0,89,0.00,,,0.01,Wunderground v.1.15,2013-08-05 15:00:00,
2013-08-05 05:10:00,73.1,69.7,29.96,East,88,3.0,4.0,89,0.00,,,0.01,Wunderground v.1.15,2013-08-05 15:10:00,
2013-08-05 05:20:00,73.0,69.9,29.96,ENE,66,3.0,4.0,90,0.00,,,0.02,Wunderground v.1.15,2013-08-05 15:20:00,
2013-08-05 05:30:00,73.0,70.2,29.96,NE,44,3.0,5.0,91,0.00,,,0.02,Wunderground v.1.15,2013-08-05 15:30:00,
2013-08-05 05:40:00,72.8,70.0,29.96,ENE,76,4.0,5.0,91,0.00,,,0.03,Wunderground v.1.15,2013-08-05 15:40:00,
2013-08-05 05:50:00,72.2,69.1,29.96,East,92,4.0,4.0,90,0.00,,,0.03,Wunderground v.1.15,2013-08-05 15:50:00,
2013-08-05 06:00:00,72.4,69.6,29.97,ENE,75,3.0,4.0,91,0.00,,,0.03,Wunderground v.1.15,2013-08-05 16:00:00,
2013-08-05 06:05:00,72.4,69.6,29.97,East,96,3.0,4.0,91,0.00,,,0.03,Wunderground v.1.15,2013-08-05 16:05:00,
2013-08-05 06:25:00,73.0,70.5,29.97,ENE,78,2.0,3.0,92,0.00,,,0.04,Wunderground v.1.15,2013-08-05 16:25:00,
2013-08-05 06:45:00,73.4,70.6,29.98,ENE,71,3.0,4.0,91,0.00,,,0.04,Wunderground v.1.15,2013-08-05 16:45:00,
2013-08-05 06:50:00,73.4,70.6,29.98,ENE,66,3.0,4.0,91,0.00,,,0.04,Wunderground v.1.15,2013-08-05 16:50:00,
2013-08-05 07:00:00,73.7,70.9,29.98,ENE,63,3.0,3.0,91,0.00,,,0.04,Wunderground v.1.15,2013-08-05 17:00:00,
2013-08-05 07:05:00,73.9,70.8,29.98,NE,53,4.0,4.0,90,0.00,,,0.05,Wunderground v.1.15,2013-08-05 17:05:00,
2013-08-05 07:14:00,74.0,70.6,29.98,NE,55,3.0,5.0,89,0.00,,,0.05,Wunderground v.1.15,2013-08-05 17:14:00,
2013-08-05 07:25:00,74.1,71.0,29.98,NE,52,4.0,7.0,90,0.00,,,0.05,Wunderground v.1.15,2013-08-05 17:25:00,
2013-08-05 07:35:00,74.5,71.4,29.98,ENE,68,4.0,4.0,90,0.00,,,0.05,Wunderground v.1.15,2013-08-05 17:35:00,
2013-08-05 07:40:00,74.5,71.0,29.98,ENE,74,4.0,5.0,89,0.00,,,0.05,Wunderground v.1.15,2013-08-05 17:40:00,
2013-08-05 07:50:00,74.9,71.4,29.99,ENE,59,5.0,5.0,89,0.00,,,0.05,Wunderground v.1.15,2013-08-05 17:50:00,
2013-08-05 08:00:00,74.7,71.2,29.99,ENE,63,6.0,6.0,89,0.00,,,0.05,Wunderground v.1.15,2013-08-05 18:00:00,
2013-08-05 08:05:00,74.7,71.6,29.99,ESE,111,5.0,6.0,90,0.00,,,0.05,Wunderground v.1.15,2013-08-05 18:05:00,
2013-08-05 08:15:00,74.6,71.5,29.99,ESE,105,4.0,4.0,90,0.00,,,0.05,Wunderground v.1.15,2013-08-05 18:15:00,
2013-08-05 08:25:00,76.0,72.2,29.99,NE,51,4.0,6.0,88,0.00,,,0.05,Wunderground v.1.15,2013-08-05 18:25:00,
2013-08-05 08:35:00,76.4,71.9,29.99,East,99,5.0,8.0,86,0.00,,,0.05,Wunderground v.1.15,2013-08-05 18:35:00,
2013-08-05 08:45:00,77.2,73.0,29.99,East,94,3.0,4.0,87,0.00,,,0.05,Wunderground v.1.15,2013-08-05 18:45:00,
2013-08-05 08:55:00,77.9,72.7,30.00,ESE,103,4.0,10.0,84,0.00,,,0.05,Wunderground v.1.15,2013-08-05 18:55:00,
2013-08-05 09:00:00,77.8,72.6,30.00,ESE,105,5.0,5.0,84,0.00,,,0.05,Wunderground v.1.15,2013-08-05 19:00:00,
2013-08-05 09:05:00,78.4,73.2,30.00,ENE,74,5.0,5.0,84,0.00,,,0.05,Wunderground v.1.15,2013-08-05 19:05:00,
2013-08-05 09:15:00,78.5,72.2,29.99,East,91,5.0,5.0,81,0.00,,,0.05,Wunderground v.1.15,2013-08-05 19:15:00,
2013-08-05 09:25:00,79.5,72.8,29.99,ENE,61,4.0,7.0,80,0.00,,,0.05,Wunderground v.1.15,2013-08-05 19:25:00,
2013-08-05 09:35:00,79.4,72.7,29.99,ENE,73,6.0,7.0,80,0.00,,,0.05,Wunderground v.1.15,2013-08-05 19:35:00,
2013-08-05 09:45:00,80.1,72.2,29.99,ENE,59,5.0,6.0,77,0.00,,,0.05,Wunderground v.1.15,2013-08-05 19:45:00,
2013-08-05 09:50:00,80.2,71.9,29.99,ESE,119,6.0,6.0,76,0.00,,,0.05,Wunderground v.1.15,2013-08-05 19:50:00,
2013-08-05 10:05:00,80.5,72.2,30.00,ENE,63,7.0,12.0,76,0.00,,,0.05,Wunderground v.1.15,2013-08-05 20:05:00,
2013-08-05 10:15:00,80.6,71.9,29.99,East,101,7.0,7.0,75,0.00,,,0.05,Wunderground v.1.15,2013-08-05 20:15:00,
2013-08-05 10:25:00,81.1,72.0,29.99,East,100,6.0,6.0,74,0.00,,,0.05,Wunderground v.1.15,2013-08-05 20:25:00,
2013-08-05 10:30:00,81.1,72.8,29.99,East,92,6.0,9.0,76,0.00,,,0.05,Wunderground v.1.15,2013-08-05 20:30:00,
2013-08-05 10:40:00,81.5,72.0,30.00,ESE,107,5.0,5.0,73,0.00,,,0.05,Wunderground v.1.15,2013-08-05 20:40:00,
2013-08-05 10:50:00,80.4,71.3,30.00,ENE,76,6.0,12.0,74,0.00,,,0.05,Wunderground v.1.15,2013-08-05 20:50:00,
2013-08-05 11:00:00,81.3,72.2,29.99,ENE,57,7.0,9.0,74,0.00,,,0.05,Wunderground v.1.15,2013-08-05 21:00:00,
2013-08-05 11:05:00,81.6,71.7,29.99,East,90,6.0,9.0,72,0.00,,,0.05,Wunderground v.1.15,2013-08-05 21:05:00,
2013-08-05 11:15:00,80.8,71.3,29.99,ENE,72,7.0,10.0,73,0.00,,,0.05,Wunderground v.1.15,2013-08-05 21:15:00,
2013-08-05 11:20:00,81.0,71.9,29.99,NE,39,7.0,9.0,74,0.00,,,0.06,Wunderground v.1.15,2013-08-05 21:20:00,
2013-08-05 11:30:00,82.1,72.2,29.98,ENE,78,5.0,5.0,72,0.00,,,0.06,Wunderground v.1.15,2013-08-05 21:30:00,
2013-08-05 11:45:00,82.1,71.3,29.98,NE,48,7.0,8.0,70,0.00,,,0.06,Wunderground v.1.15,2013-08-05 21:45:00,
2013-08-05 11:55:00,82.8,71.2,29.97,SE,131,6.0,7.0,68,0.00,,,0.06,Wunderground v.1.15,2013-08-05 21:55:00,
2013-08-05 12:05:00,82.7,72.7,29.97,ENE,58,6.0,7.0,72,0.00,,,0.06,Wunderground v.1.15,2013-08-05 22:05:00,
2013-08-05 12:35:00,83.0,71.3,29.96,East,90,8.0,8.0,68,0.00,,,0.06,Wunderground v.1.15,2013-08-05 22:35:00,
2013-08-05 12:50:00,82.9,70.8,29.96,ESE,108,9.0,10.0,67,0.00,,,0.06,Wunderground v.1.15,2013-08-05 22:50:00,
2013-08-05 13:00:00,83.3,70.8,29.95,ESE,115,8.0,8.0,66,0.00,,,0.06,Wunderground v.1.15,2013-08-05 23:00:00,
2013-08-05 13:05:00,83.5,71.8,29.95,East,101,7.0,12.0,68,0.00,,,0.06,Wunderground v.1.15,2013-08-05 23:05:00,
2013-08-05 13:15:00,82.9,71.3,29.95,East,99,9.0,9.0,68,0.00,,,0.06,Wunderground v.1.15,2013-08-05 23:15:00,
2013-08-05 13:25:00,83.8,71.7,29.95,East,86,6.0,7.0,67,0.00,,,0.06,Wunderground v.1.15,2013-08-05 23:25:00,
2013-08-05 13:30:00,84.3,72.6,29.94,East,94,4.0,4.0,68,0.00,,,0.06,Wunderground v.1.15,2013-08-05 23:30:00,
2013-08-05 13:40:00,83.9,72.2,29.94,ENE,73,5.0,6.0,68,0.00,,,0.06,Wunderground v.1.15,2013-08-05 23:40:00,
2013-08-05 13:50:00,83.3,71.6,29.94,ENE,71,5.0,5.0,68,0.00,,,0.06,Wunderground v.1.15,2013-08-05 23:50:00,
2013-08-05 14:05:00,83.1,71.9,29.94,East,83,6.0,6.0,69,0.00,,,0.06,Wunderground v.1.15,2013-08-06 00:05:00,
2013-08-05 14:15:00,83.0,71.8,29.93,ENE,61,7.0,10.0,69,0.00,,,0.06,Wunderground v.1.15,2013-08-06 00:15:00,
2013-08-05 14:30:00,83.9,72.2,29.93,East,98,6.0,6.0,68,0.00,,,0.06,Wunderground v.1.15,2013-08-06 00:30:00,
2013-08-05 14:35:00,83.9,72.2,29.93,ENE,76,5.0,6.0,68,0.00,,,0.06,Wunderground v.1.15,2013-08-06 00:35:00,
2013-08-05 14:45:00,83.3,72.5,29.93,East,87,7.0,7.0,70,0.00,,,0.06,Wunderground v.1.15,2013-08-06 00:45:00,
2013-08-05 14:55:00,83.4,71.7,29.93,ESE,113,6.0,7.0,68,0.00,,,0.06,Wunderground v.1.15,2013-08-06 00:55:00,
2013-08-05 15:00:00,83.7,72.0,29.92,ENE,75,6.0,6.0,68,0.00,,,0.06,Wunderground v.1.15,2013-08-06 01:00:00,
2013-08-05 15:05:00,83.6,71.5,29.93,East,101,6.0,6.0,67,0.00,,,0.06,Wunderground v.1.15,2013-08-06 01:05:00,
2013-08-05 15:15:00,83.3,71.6,29.92,East,86,6.0,11.0,68,0.00,,,0.06,Wunderground v.1.15,2013-08-06 01:15:00,
2013-08-05 15:20:00,83.3,72.1,29.92,East,101,6.0,7.0,69,0.00,,,0.06,Wunderground v.1.15,2013-08-06 01:20:00,
2013-08-05 15:30:00,83.2,71.5,29.92,NE,50,7.0,7.0,68,0.00,,,0.06,Wunderground v.1.15,2013-08-06 01:30:00,
2013-08-05 15:40:00,81.2,71.7,29.92,ENE,72,8.0,8.0,73,0.00,,,0.06,Wunderground v.1.15,2013-08-06 01:40:00,
2013-08-05 15:50:00,81.6,70.9,29.91,ENE,78,8.0,17.0,70,0.00,,,0.06,Wunderground v.1.15,2013-08-06 01:50:00,
2013-08-05 15:55:00,81.3,72.6,29.92,ENE,67,9.0,17.0,75,0.00,,,0.06,Wunderground v.1.15,2013-08-06 01:55:00,
2013-08-05 16:05:00,78.9,73.3,29.92,ENE,76,7.0,9.0,83,0.28,,,0.08,Wunderground v.1.15,2013-08-06 02:05:00,
2013-08-05 16:15:00,77.4,72.2,29.92,East,88,7.0,7.0,84,0.05,,,0.08,Wunderground v.1.15,2013-08-06 02:15:00,
2013-08-05 16:25:00,78.2,72.3,29.92,ENE,65,7.0,7.0,82,0.00,,,0.08,Wunderground v.1.15,2013-08-06 02:25:00,
2013-08-05 16:30:00,78.8,72.1,29.92,East,92,6.0,6.0,80,0.00,,,0.08,Wunderground v.1.15,2013-08-06 02:30:00,
2013-08-05 16:40:00,78.5,72.2,29.93,East,90,7.0,7.0,81,0.24,,,0.11,Wunderground v.1.15,2013-08-06 02:40:00,
2013-08-05 16:55:00,77.3,71.7,29.92,NE,51,6.0,6.0,83,0.00,,,0.11,Wunderground v.1.15,2013-08-06 02:55:00,
2013-08-05 17:05:00,78.0,72.1,29.92,ESE,106,5.0,7.0,82,0.00,,,0.11,Wunderground v.1.15,2013-08-06 03:05:00,
2013-08-05 17:15:00,78.5,72.9,29.92,NE,55,3.0,5.0,83,0.00,,,0.11,Wunderground v.1.15,2013-08-06 03:15:00,
2013-08-05 17:25:00,79.1,72.4,29.93,ENE,59,6.0,6.0,80,0.00,,,0.11,Wunderground v.1.15,2013-08-06 03:25:00,
2013-08-05 17:35:00,78.4,71.7,29.93,East,82,5.0,11.0,80,0.00,,,0.11,Wunderground v.1.15,2013-08-06 03:35:00,
2013-08-05 17:40:00,78.0,71.3,29.93,East,96,5.0,5.0,80,0.00,,,0.11,Wunderground v.1.15,2013-08-06 03:40:00,
2013-08-05 17:50:00,78.4,72.8,29.93,ESE,122,4.0,4.0,83,1.57,,,0.14,Wunderground v.1.15,2013-08-06 03:50:00,
2013-08-05 18:00:00,76.8,71.9,29.94,East,92,5.0,5.0,85,0.06,,,0.14,Wunderground v.1.15,2013-08-06 04:00:00,
2013-08-05 18:05:00,76.7,71.8,29.94,East,94,5.0,8.0,85,0.04,,,0.14,Wunderground v.1.15,2013-08-06 04:05:00,
2013-08-05 18:10:00,76.9,72.0,29.93,East,90,5.0,5.0,85,0.00,,,0.14,Wunderground v.1.15,2013-08-06 04:10:00,
2013-08-05 18:15:00,76.7,71.8,29.94,NE,48,4.0,6.0,85,0.00,,,0.14,Wunderground v.1.15,2013-08-06 04:15:00,
2013-08-05 18:20:00,76.3,71.8,29.94,East,87,3.0,4.0,86,0.16,,,0.16,Wunderground v.1.15,2013-08-06 04:20:00,
2013-08-05 18:25:00,75.7,71.6,29.94,ESE,114,3.0,4.0,87,0.07,,,0.16,Wunderground v.1.15,2013-08-06 04:25:00,
2013-08-05 18:35:00,75.2,71.1,29.94,NE,52,4.0,6.0,87,0.00,,,0.17,Wunderground v.1.15,2013-08-06 04:35:00,
2013-08-05 18:45:00,75.0,71.2,29.94,ENE,59,4.0,4.0,88,0.10,,,0.18,Wunderground v.1.15,2013-08-06 04:45:00,
2013-08-05 18:55:00,74.9,71.1,29.94,NE,52,4.0,4.0,88,0.04,,,0.18,Wunderground v.1.15,2013-08-06 04:55:00,
2013-08-05 19:00:00,74.8,70.7,29.94,ENE,65,5.0,5.0,87,0.00,,,0.18,Wunderground v.1.15,2013-08-06 05:00:00,
2013-08-05 19:05:00,74.7,70.6,29.95,East,96,5.0,7.0,87,0.00,,,0.18,Wunderground v.1.15,2013-08-06 05:05:00,
2013-08-05 19:15:00,74.7,70.6,29.95,East,82,3.0,3.0,87,0.00,,,0.18,Wunderground v.1.15,2013-08-06 05:15:00,
2013-08-05 19:20:00,74.7,70.6,29.95,East,101,3.0,4.0,87,0.00,,,0.18,Wunderground v.1.15,2013-08-06 05:20:00,
2013-08-05 19:30:00,74.9,70.8,29.96,East,85,4.0,6.0,87,0.00,,,0.18,Wunderground v.1.15,2013-08-06 05:30:00,
2013-08-05 19:40:00,75.2,70.7,29.96,ENE,75,6.0,6.0,86,0.00,,,0.18,Wunderground v.1.15,2013-08-06 05:40:00,
2013-08-05 19:50:00,74.9,70.4,29.97,East,91,5.0,5.0,86,0.00,,,0.18,Wunderground v.1.15,2013-08-06 05:50:00,
2013-08-05 20:00:00,74.6,70.1,29.97,East,81,3.0,3.0,86,0.00,,,0.18,Wunderground v.1.15,2013-08-06 06:00:00,
2013-08-05 20:05:00,74.5,70.0,29.97,East,79,3.0,3.0,86,0.00,,,0.18,Wunderground v.1.15,2013-08-06 06:05:00,
2013-08-05 20:15:00,74.6,70.1,29.97,East,92,4.0,5.0,86,0.00,,,0.18,Wunderground v.1.15,2013-08-06 06:15:00,
2013-08-05 20:25:00,74.9,70.4,29.97,East,98,4.0,4.0,86,0.00,,,0.18,Wunderground v.1.15,2013-08-06 06:25:00,
2013-08-05 20:35:00,74.8,70.0,29.97,East,82,4.0,9.0,85,0.00,,,0.18,Wunderground v.1.15,2013-08-06 06:35:00,
2013-08-05 20:45:00,75.1,69.9,29.97,ENE,63,5.0,5.0,84,0.00,,,0.18,Wunderground v.1.15,2013-08-06 06:45:00,
2013-08-05 20:55:00,75.1,69.9,29.97,East,101,5.0,5.0,84,0.00,,,0.18,Wunderground v.1.15,2013-08-06 06:55:00,
2013-08-05 21:05:00,75.3,70.1,29.97,East,94,5.0,6.0,84,0.00,,,0.18,Wunderground v.1.15,2013-08-06 07:05:00,
2013-08-05 21:15:00,75.3,70.1,29.98,East,95,5.0,6.0,84,0.00,,,0.18,Wunderground v.1.15,2013-08-06 07:15:00,
2013-08-05 21:25:00,75.2,69.7,29.98,ENE,70,4.0,4.0,83,0.00,,,0.18,Wunderground v.1.15,2013-08-06 07:25:00,
2013-08-05 21:35:00,75.2,70.0,29.98,NE,49,4.0,4.0,84,0.00,,,0.18,Wunderground v.1.15,2013-08-06 07:35:00,
2013-08-05 21:40:00,75.1,69.6,29.98,East,91,4.0,4.0,83,0.00,,,0.18,Wunderground v.1.15,2013-08-06 07:40:00,
2013-08-05 21:50:00,75.1,69.6,29.98,ENE,72,4.0,4.0,83,0.00,,,0.18,Wunderground v.1.15,2013-08-06 07:50:00,
2013-08-05 22:00:00,75.2,69.7,29.98,ESE,106,4.0,4.0,83,0.00,,,0.18,Wunderground v.1.15,2013-08-06 08:00:00,
2013-08-05 22:05:00,75.2,69.3,29.99,SE,127,4.0,4.0,82,0.00,,,0.18,Wunderground v.1.15,2013-08-06 08:05:00,
2013-08-05 22:15:00,75.3,69.4,29.99,ESE,120,4.0,4.0,82,0.00,,,0.18,Wunderground v.1.15,2013-08-06 08:15:00,
2013-08-05 22:25:00,75.3,69.8,29.99,East,88,3.0,4.0,83,0.00,,,0.18,Wunderground v.1.15,2013-08-06 08:25:00,
2013-08-05 22:35:00,75.2,69.7,29.99,ESE,111,3.0,3.0,83,0.00,,,0.18,Wunderground v.1.15,2013-08-06 08:35:00,
2013-08-05 22:45:00,75.2,69.7,29.99,ENE,64,4.0,6.0,83,0.00,,,0.18,Wunderground v.1.15,2013-08-06 08:45:00,
2013-08-05 22:55:00,75.2,69.7,29.99,East,94,3.0,5.0,83,0.00,,,0.18,Wunderground v.1.15,2013-08-06 08:55:00,
2013-08-05 23:00:00,75.2,69.7,29.99,ESE,107,3.0,3.0,83,0.00,,,0.18,Wunderground v.1.15,2013-08-06 09:00:00,
2013-08-05 23:05:00,75.2,69.3,29.99,ENE,66,5.0,5.0,82,0.00,,,0.18,Wunderground v.1.15,2013-08-06 09:05:00,
2013-08-05 23:15:00,75.1,69.2,29.99,ESE,102,4.0,6.0,82,0.00,,,0.18,Wunderground v.1.15,2013-08-06 09:15:00,
2013-08-05 23:20:00,74.9,69.0,29.99,East,98,4.0,5.0,82,0.00,,,0.18,Wunderground v.1.15,2013-08-06 09:20:00,
2013-08-05 23:30:00,74.9,69.4,29.99,East,84,3.0,7.0,83,0.00,,,0.18,Wunderground v.1.15,2013-08-06 09:30:00,
2013-08-05 23:40:00,74.9,69.4,29.99,East,98,4.0,4.0,83,0.00,,,0.18,Wunderground v.1.15,2013-08-06 09:40:00,
2013-08-05 23:50:00,75.0,69.5,29.99,ENE,76,4.0,4.0,83,0.00,,,0.18,Wunderground v.1.15,2013-08-06 09:50:00,
2013-08-05 23:55:00,74.9,69.4,29.98,East,101,3.0,4.0,83,0.00,,,0.18,Wunderground v.1.15,2013-08-06 09:55:00,